CT1AKV-10 Estrada Real PT current weather conditions

sailwx.info

Wind from 299 at 2 knots gusting 5

Air temperature 16.1° C
Dewpoint -15.5° C

Last reported at 2016-May-02 20:45 UTC.
Time now 2016-May-02 21:22 UTC

Location: N 39°11' W 008°44'.
View on Google Maps.

See reports from other nearby stations

  
Tides and Currents Weather Stations Pressure Air Temp Water Temp Dewpoint Dewpoint Depression Visibility Wind Speed Wind Dir Waves Ship Positions
date/time (UTC)wind fromknots sea level pressurealtimeterstation pressurevisibilityair tempwater tempwave heightnotes
2016-May-02 20:45 299 2 gusting 5 16.1
2016-May-02 20:30 302 1 gusting 6 16.7
2016-May-02 20:15 322 2 gusting 6 17.2
2016-May-02 20:00 315 3 gusting 6 17.8
2016-May-02 19:45 297 3 gusting 7 18.3
2016-May-02 19:30 305 3 gusting 9 19.4
2016-May-02 19:15 301 4 gusting 9 20.6
2016-May-02 19:00 315 5 gusting 12 21.7
2016-May-02 18:45 320 5 gusting 10 23.3
2016-May-02 18:30 299 3 gusting 10 25.0
2016-May-02 18:15 304 4 gusting 9 26.1
2016-May-02 18:00 316 4 gusting 12 27.2
2016-May-02 17:45 293 5 gusting 11 27.2
2016-May-02 17:30 320 5 gusting 10 27.8
2016-May-02 17:15 314 5 gusting 13 28.3
2016-May-02 17:00 319 5 gusting 13 28.9
2016-May-02 16:45 346 4 gusting 11 30.0
2016-May-02 16:30 016 3 gusting 8 30.6
2016-May-02 16:15 010 3 gusting 7 31.1
2016-May-02 16:00 017 4 gusting 10 30.6
2016-May-02 15:45 350 2 gusting 6 31.7
2016-May-02 15:30 340 2 gusting 9 32.2
2016-May-02 15:15 332 2 gusting 6 32.2
2016-May-02 15:00 346 1 gusting 6 32.2
2016-May-02 14:45 343 2 gusting 7 31.1
2016-May-02 14:30 014 3 gusting 7 30.6
2016-May-02 14:15 009 3 gusting 8 30.6
2016-May-02 14:00 354 2 gusting 6 30.6
2016-May-02 13:45 039 3 gusting 7 29.4
2016-May-02 13:30 359 3 gusting 9 29.4
2016-May-02 13:15 023 4 gusting 9 28.3
2016-May-02 13:00 330 3 gusting 9 28.9
2016-May-02 12:45 072 3 gusting 8 27.8
2016-May-02 12:30 044 3 gusting 9 27.8
2016-May-02 12:15 033 3 gusting 9 27.8
2016-May-02 12:00 358 4 gusting 8 26.7
2016-May-02 11:45 005 3 gusting 8 26.7
2016-May-02 11:30 075 5 gusting 9 25.0
2016-May-02 11:15 030 5 gusting 13 24.4
2016-May-02 11:00 026 5 gusting 10 24.4
2016-May-02 10:45 032 3 gusting 6 24.4
2016-May-02 10:30 005 3 gusting 9 23.3
2016-May-02 10:15 024 3 gusting 9 23.3
2016-May-02 10:00 045 3 gusting 11 22.8
2016-May-02 09:45 040 4 gusting 8 22.2
2016-May-02 09:30 055 5 gusting 9 21.7
2016-May-02 09:15 036 5 gusting 12 21.1
2016-May-02 09:00 052 4 gusting 9 21.1
2016-May-02 08:45 024 5 gusting 9 20.6
2016-May-02 08:30 026 4 gusting 10 20.6
2016-May-02 08:15 014 2 gusting 8 20.6
2016-May-02 08:00 008 3 gusting 7 20.0
2016-May-02 07:45 026 3 gusting 7 19.4
2016-May-02 07:30 027 1 gusting 5 18.9
2016-May-02 07:15 023 3 gusting 8 17.8
2016-May-02 07:00 020 2 gusting 6 16.7
2016-May-02 06:45 359 1 gusting 3 15.0
2016-May-02 06:30 344 0 gusting 3 12.2
2016-May-02 06:15 001 0 gusting 3 11.7
2016-May-02 06:00 001 0 gusting 2 11.1
2016-May-02 05:45 350 0 gusting 3 11.1
2016-May-02 05:30 358 0 gusting 3 11.1
2016-May-02 05:15 349 0 gusting 2 11.1
2016-May-02 05:00 346 0 gusting 3 11.7
2016-May-02 04:45 021 0 gusting 3 11.7
2016-May-02 04:30 010 0 gusting 3 11.7
2016-May-02 04:15 341 0 gusting 3 11.7
2016-May-02 04:00 354 0 gusting 4 11.7
2016-May-02 03:45 354 0 gusting 2 12.2
2016-May-02 03:30 027 0 gusting 2 12.2
2016-May-02 03:15 012 0 gusting 3 12.2
2016-May-02 03:00 008 0 gusting 1 12.2
2016-May-02 02:45 007 0 gusting 2 12.2
2016-May-02 02:30 337 12.2
2016-May-02 02:15 328 0 gusting 3 12.2
2016-May-02 02:00 330 11.7
2016-May-02 01:45 324 11.7
2016-May-02 01:30 242 12.2
2016-May-02 01:15 314 0 gusting 2 12.8
2016-May-02 01:00 041 0 gusting 3 12.8
2016-May-02 00:45 021 11.7
2016-May-02 00:30 12.2
2016-May-02 00:15 12.2
2016-May-02 00:00 12.2
2016-May-01 23:45 193 12.2
2016-May-01 23:30 211 12.2
2016-May-01 23:15 283 13.3
2016-May-01 23:00 13.3
2016-May-01 22:45 317 0 gusting 1 13.9
2016-May-01 22:30 359 13.3
2016-May-01 22:15 245 13.9
2016-May-01 22:00 239 14.4
2016-May-01 21:45 289 15.6
2016-May-01 21:30 002 0 gusting 4 16.1
2016-May-01 21:15 343 1 gusting 5 16.7
2016-May-01 21:00 334 0 gusting 5 16.7
2016-May-01 20:45 312 0 gusting 3 16.7
2016-May-01 20:30 330 0 gusting 4 17.2
2016-May-01 20:15 322 1 gusting 4 17.8
2016-May-01 20:00 296 1 gusting 4 18.3
2016-May-01 19:45 321 1 gusting 5 18.9
2016-May-01 19:30 306 1 gusting 5 20.0
2016-May-01 19:15 302 2 gusting 5 21.1
2016-May-01 19:00 328 1 gusting 5 22.2
2016-May-01 18:45 297 1 gusting 5 24.4
2016-May-01 18:30 307 1 gusting 6 26.1
2016-May-01 18:15 275 1 gusting 6 27.2
2016-May-01 18:00 031 1 gusting 5 29.4
2016-May-01 17:45 039 1 gusting 3 30.0
2016-May-01 17:30 024 1 gusting 4 29.4
2016-May-01 17:15 024 1 gusting 6 29.4
2016-May-01 17:00 014 2 gusting 7 28.9
2016-May-01 16:45 015 2 gusting 6 28.9
2016-May-01 16:30 049 1 gusting 6 29.4
2016-May-01 16:15 003 2 gusting 7 29.4
2016-May-01 16:00 029 1 gusting 5 30.0
2016-May-01 15:45 018 0 gusting 6 29.4
2016-May-01 15:30 355 2 gusting 6 28.3
2016-May-01 15:15 027 3 gusting 8 27.2
2016-May-01 15:00 045 2 gusting 7 27.2
2016-May-01 14:45 035 3 gusting 9 27.2
2016-May-01 14:30 023 4 gusting 9 26.7
2016-May-01 14:15 049 2 gusting 9 27.2
2016-May-01 14:00 046 4 gusting 9 26.1
2016-May-01 13:45 020 4 gusting 9 26.1
2016-May-01 13:30 050 4 gusting 9 25.6
2016-May-01 13:15 022 4 gusting 11 25.6
2016-May-01 13:00 045 5 gusting 13 25.0
2016-May-01 12:45 053 3 gusting 12 25.6
2016-May-01 12:30 058 5 gusting 13 23.9
2016-May-01 12:15 027 5 gusting 13 23.9
2016-May-01 12:00 046 5 gusting 11 23.9
2016-May-01 11:45 055 5 gusting 11 23.3
2016-May-01 11:30 031 4 gusting 11 23.3
2016-May-01 11:15 058 5 gusting 11 22.8
2016-May-01 11:00 037 5 gusting 12 22.2
2016-May-01 10:45 018 4 gusting 12 22.2
2016-May-01 10:30 033 6 gusting 14 21.7
2016-May-01 10:15 017 5 gusting 11 21.1
2016-May-01 10:00 031 6 gusting 14 20.0
2016-May-01 09:45 023 5 gusting 12 20.0
2016-May-01 09:30 042 6 gusting 13 19.4
2016-May-01 09:15 038 5 gusting 13 18.9
2016-May-01 09:00 041 6 gusting 13 18.3
2016-May-01 08:45 021 6 gusting 14 17.8
2016-May-01 08:30 029 6 gusting 13 17.8
2016-May-01 08:15 028 6 gusting 13 17.2
2016-May-01 08:00 026 5 gusting 14 17.2
2016-May-01 07:45 015 5 gusting 12 16.7
2016-May-01 07:30 031 4 gusting 11 16.7
2016-May-01 07:15 033 4 gusting 11 15.6
2016-May-01 07:00 031 2 gusting 7 15.0
2016-May-01 06:45 008 1 gusting 5 13.3
2016-May-01 06:30 008 2 gusting 6 11.1
2016-May-01 06:15 354 1 gusting 5 10.6
2016-May-01 06:00 014 1 gusting 3 10.0
2016-May-01 05:45 014 1 gusting 4 10.0
2016-May-01 05:30 004 1 gusting 4 9.4
2016-May-01 05:15 333 1 gusting 6 8.9
2016-May-01 05:00 310 0 gusting 3 8.3
2016-May-01 04:45 274 8.3
2016-May-01 04:30 301 0 gusting 2 8.9
2016-May-01 04:15 306 0 gusting 3 8.9
2016-May-01 04:00 318 1 gusting 3 8.9
2016-May-01 03:45 318 1 gusting 3 8.9
2016-May-01 03:30 314 8.9
2016-May-01 03:15 316 8.9
2016-May-01 03:00 319 9.4
2016-May-01 02:45 310 0 gusting 3 9.4
2016-May-01 02:30 318 0 gusting 3 10.0
2016-May-01 02:15 315 2 gusting 6 10.0
2016-May-01 02:00 306 1 gusting 5 10.0
2016-May-01 01:45 305 2 gusting 5 10.0
2016-May-01 01:30 307 2 gusting 5 10.6
2016-May-01 01:15 312 1 gusting 6 10.6
2016-May-01 01:00 310 2 gusting 6 10.6
2016-May-01 00:45 314 1 gusting 6 11.1
2016-May-01 00:30 326 2 gusting 6 11.1
2016-May-01 00:15 301 2 gusting 6 11.1
2016-May-01 00:00 304 2 gusting 6 11.1
2016-Apr-30 23:45 300 1 gusting 5 11.1
2016-Apr-30 23:30 289 0 gusting 4 11.7
2016-Apr-30 23:15 294 1 gusting 4 11.7
2016-Apr-30 23:00 305 1 gusting 4 11.7
2016-Apr-30 22:45 299 1 gusting 4 12.2
2016-Apr-30 22:30 304 2 gusting 6 12.8
2016-Apr-30 22:15 311 4 gusting 7 12.8
2016-Apr-30 22:00 318 3 gusting 7 13.3
2016-Apr-30 21:45 309 3 gusting 8 13.3
2016-Apr-30 21:30 314 3 gusting 8 13.9
2016-Apr-30 21:15 310 3 gusting 6 13.9
2016-Apr-30 21:00 321 3 gusting 6 14.4